When you browse on this site, cookies collect data to enhance your experience and personalize the content and advertising you see.
Visit our Privacy Policy to learn more. By continuing to use the site, you agree to this use of cookies and data.
  • en Suisse
  • Liste des pays
  • À 7 jours
  • Température de l'eau
  • Carte météo
  • Widgets météo
  • user-avatar
    Se connecter

    Météo par heure à Méribel

    Ce jour, 27 Février, Jeudi

    Heure Température Précipitation Vent Pression Humidité
    00:00 -8°C° 0 mm 2 m/s 625 mmHg 94%
    01:00 -9°C° 0.1 mm 2 m/s 624 mmHg 93%
    02:00 -10°C° 0.1 mm 2 m/s 624 mmHg 92%
    03:00 -10°C° 0.1 mm 2 m/s 623 mmHg 91%
    04:00 -10°C° 0 mm 2 m/s 623 mmHg 83%
    05:00 -10°C° 0 mm 2 m/s 623 mmHg 75%
    06:00 -9°C° 0 mm 2 m/s 623 mmHg 70%
    07:00 -7°C° 0.1 mm 2 m/s 623 mmHg 70%
    08:00 -5°C° 0.1 mm 2 m/s 624 mmHg 70%
    09:00 -4°C° 0.1 mm 2 m/s 624 mmHg 70%
    10:00 -3°C° 1 mm 2 m/s 624 mmHg 78%
    11:00 -2°C° 1 mm 2 m/s 623 mmHg 86%
    12:00 -2°C° 1 mm 3 m/s 623 mmHg 93%
    13:00 -2°C° 2.9 mm 3 m/s 623 mmHg 95%
    14:00 -1°C° 2.9 mm 3 m/s 622 mmHg 96%
    15:00 -1°C° 2.9 mm 3 m/s 622 mmHg 97%
    16:00 -2°C° 2.7 mm 4 m/s 622 mmHg 97%
    17:00 -2°C° 2.7 mm 4 m/s 622 mmHg 97%
    18:00 -2°C° 2.7 mm 4 m/s 623 mmHg 98%
    19:00 -2°C° 2.1 mm 4 m/s 623 mmHg 97%
    20:00 -3°C° 2.1 mm 4 m/s 624 mmHg 97%
    21:00 -4°C° 2.1 mm 4 m/s 624 mmHg 96%
    22:00 -5°C° 0.3 mm 4 m/s 625 mmHg 97%
    23:00 -7°C° 0.3 mm 3 m/s 625 mmHg 97%

    Demain, 28 Février, Vendredi

    Heure Température Précipitation Vent Pression Humidité
    00:00 -8°C° 0.3 mm 3 m/s 625 mmHg 98%
    01:00 -7°C° 0.1 mm 2 m/s 626 mmHg 97%
    02:00 -8°C° 0.1 mm 2 m/s 626 mmHg 97%
    03:00 -8°C° 0.1 mm 1 m/s 626 mmHg 97%
    04:00 -9°C° 0 mm 2 m/s 626 mmHg 86%
    05:00 -10°C° 0 mm 2 m/s 626 mmHg 75%
    06:00 -12°C° 0 mm 2 m/s 627 mmHg 64%
    07:00 -8°C° 0 mm 2 m/s 627 mmHg 61%
    08:00 -5°C° 0 mm 2 m/s 628 mmHg 58%
    09:00 -1°C° 0 mm 1 m/s 629 mmHg 56%
    10:00 +1°C° 0 mm 1 m/s 629 mmHg 58%
    11:00 +2°C° 0 mm 1 m/s 630 mmHg 60%
    12:00 +3°C° 0 mm 1 m/s 630 mmHg 62%
    13:00 +3°C° 0 mm 1 m/s 630 mmHg 65%
    14:00 +4°C° 0 mm 1 m/s 630 mmHg 67%
    15:00 +4°C° 0 mm 1 m/s 629 mmHg 69%
    16:00 +2°C° 0 mm 1 m/s 629 mmHg 67%
    17:00 +1°C° 0 mm 1 m/s 629 mmHg 64%
    18:00 -1°C° 0 mm 1 m/s 628 mmHg 62%
    19:00 0°C° 0 mm 1 m/s 628 mmHg 65%
    20:00 0°C° 0 mm 1 m/s 628 mmHg 68%
    21:00 -2°C° 0 mm 2 m/s 628 mmHg 71%
    22:00 -2°C° 0 mm 2 m/s 628 mmHg 71%
    23:00 -1°C° 0 mm 2 m/s 628 mmHg 72%

    Après-demain, 29 Février, Samedi

    Heure Température Précipitation Vent Pression Humidité
    00:00 -1°C° 0 mm 2 m/s 628 mmHg 72%
    01:00 -1°C° 0 mm 2 m/s 628 mmHg 74%
    02:00 -2°C° 0 mm 2 m/s 627 mmHg 76%
    03:00 -2°C° 0 mm 2 m/s 627 mmHg 78%
    04:00 -2°C° 0 mm 3 m/s 626 mmHg 79%
    05:00 -4°C° 0 mm 3 m/s 626 mmHg 80%
    06:00 -4°C° 0 mm 3 m/s 625 mmHg 81%
    07:00 -2°C° 0 mm 3 m/s 625 mmHg 82%
    08:00 -1°C° 0 mm 3 m/s 625 mmHg 83%
    09:00 0°C° 0 mm 3 m/s 625 mmHg 85%
    10:00 +1°C° 0 mm 3 m/s 625 mmHg 87%
    11:00 +1°C° 0 mm 3 m/s 625 mmHg 89%
    12:00 +3°C° 0 mm 2 m/s 625 mmHg 91%
    13:00 +3°C° 0.1 mm 2 m/s 625 mmHg 92%
    14:00 +2°C° 0.1 mm 2 m/s 625 mmHg 92%
    15:00 +2°C° 0.1 mm 2 m/s 624 mmHg 93%
    16:00 +1°C° 0.7 mm 2 m/s 624 mmHg 94%
    17:00 +1°C° 0.7 mm 2 m/s 624 mmHg 96%
    18:00 +1°C° 0.7 mm 1 m/s 624 mmHg 97%
    19:00 +1°C° 2 mm 1 m/s 624 mmHg 98%
    20:00 +1°C° 2 mm 1 m/s 624 mmHg 98%
    21:00 +1°C° 2 mm 1 m/s 625 mmHg 98%
    22:00 +1°C° 1.4 mm 1 m/s 625 mmHg 98%
    23:00 +1°C° 1.4 mm 1 m/s 624 mmHg 98%

    1 Mars, Dimanche

    Heure Température Précipitation Vent Pression Humidité
    00:00 +1°C° 1.4 mm 1 m/s 624 mmHg 98%
    01:00 +1°C° 0.5 mm 1 m/s 624 mmHg 97%
    02:00 0°C° 0.5 mm 1 m/s 624 mmHg 97%
    03:00 0°C° 0.5 mm 1 m/s 623 mmHg 96%
    04:00 -1°C° 0 mm 1 m/s 623 mmHg 94%
    05:00 -2°C° 0 mm 1 m/s 622 mmHg 91%
    06:00 -3°C° 0 mm 1 m/s 622 mmHg 89%
    07:00 -1°C° 0 mm 1 m/s 622 mmHg 85%
    08:00 0°C° 0 mm 1 m/s 622 mmHg 81%
    09:00 +2°C° 0 mm 1 m/s 622 mmHg 77%
    10:00 +2°C° 0 mm 1 m/s 622 mmHg 80%
    11:00 +3°C° 0 mm 1 m/s 622 mmHg 83%
    12:00 +4°C° 0 mm 1 m/s 622 mmHg 86%
    13:00 +4°C° 0.1 mm 1 m/s 621 mmHg 87%
    14:00 +4°C° 0.1 mm 1 m/s 621 mmHg 88%
    15:00 +3°C° 0.1 mm 1 m/s 620 mmHg 90%
    16:00 +3°C° 0.9 mm 1 m/s 620 mmHg 92%
    17:00 +2°C° 0.9 mm 1 m/s 620 mmHg 94%
    18:00 +1°C° 0.9 mm 1 m/s 620 mmHg 97%
    19:00 -1°C° 2.7 mm 2 m/s 620 mmHg 97%
    20:00 -2°C° 2.7 mm 2 m/s 620 mmHg 97%
    21:00 -2°C° 2.7 mm 3 m/s 620 mmHg 98%
    22:00 -3°C° 1.2 mm 2 m/s 620 mmHg 97%
    23:00 -4°C° 1.2 mm 2 m/s 620 mmHg 97%

    2 Mars, Lundi

    Heure Température Précipitation Vent Pression Humidité
    00:00 -5°C° 1.2 mm 2 m/s 619 mmHg 97%
    01:00 -6°C° 0 mm 2 m/s 619 mmHg 95%
    02:00 -7°C° 0 mm 2 m/s 618 mmHg 93%
    03:00 -8°C° 0 mm 2 m/s 618 mmHg 92%
    04:00 -7°C° 0.1 mm 2 m/s 618 mmHg 86%
    05:00 -6°C° 0.1 mm 2 m/s 618 mmHg 81%
    06:00 -6°C° 0.1 mm 2 m/s 618 mmHg 76%
    07:00 -5°C° 1.2 mm 2 m/s 618 mmHg 82%
    08:00 -4°C° 1.2 mm 2 m/s 619 mmHg 88%
    09:00 -3°C° 1.2 mm 2 m/s 619 mmHg 94%
    10:00 -2°C° 1.6 mm 2 m/s 619 mmHg 95%
    11:00 -2°C° 1.6 mm 2 m/s 619 mmHg 96%
    12:00 -1°C° 1.6 mm 2 m/s 619 mmHg 97%
    13:00 -1°C° 0.7 mm 2 m/s 619 mmHg 94%
    14:00 -1°C° 0.7 mm 2 m/s 618 mmHg 92%
    15:00 -2°C° 0.7 mm 2 m/s 618 mmHg 90%
    16:00 -3°C° 0.9 mm 2 m/s 618 mmHg 92%
    17:00 -4°C° 0.9 mm 2 m/s 618 mmHg 95%
    18:00 -3°C° 0.9 mm 1 m/s 618 mmHg 97%
    19:00 -3°C° 0.2 mm 1 m/s 618 mmHg 97%
    20:00 -4°C° 0.2 mm 1 m/s 618 mmHg 97%
    21:00 -4°C° 0.2 mm 1 m/s 618 mmHg 97%
    22:00 -6°C° 0 mm 1 m/s 618 mmHg 96%
    23:00 -7°C° 0 mm 1 m/s 618 mmHg 95%

    3 Mars, Mardi

    Heure Température Précipitation Vent Pression Humidité
    00:00 -8°C° 0 mm 1 m/s 618 mmHg 94%
    01:00 -8°C° 0 mm 1 m/s 618 mmHg 94%
    02:00 -8°C° 0 mm 1 m/s 618 mmHg 95%
    03:00 -7°C° 0 mm 1 m/s 618 mmHg 95%
    04:00 -7°C° 0 mm 1 m/s 618 mmHg 95%
    05:00 -8°C° 0 mm 1 m/s 619 mmHg 95%
    06:00 -8°C° 0 mm 1 m/s 619 mmHg 95%
    07:00 -6°C° 0 mm 1 m/s 620 mmHg 90%
    08:00 -4°C° 0 mm 1 m/s 620 mmHg 85%
    09:00 -2°C° 0 mm 1 m/s 621 mmHg 80%
    10:00 -1°C° 0 mm 1 m/s 621 mmHg 78%
    11:00 0°C° 0 mm 1 m/s 621 mmHg 77%
    12:00 +1°C° 0 mm 1 m/s 621 mmHg 75%
    13:00 +1°C° 0 mm 1 m/s 621 mmHg 77%
    14:00 +1°C° 0 mm 1 m/s 620 mmHg 80%
    15:00 +2°C° 0 mm 1 m/s 620 mmHg 82%
    16:00 +1°C° 0.1 mm 1 m/s 620 mmHg 86%
    17:00 0°C° 0.1 mm 1 m/s 620 mmHg 90%
    18:00 -1°C° 0.1 mm 1 m/s 620 mmHg 94%
    19:00 -1°C° 0.8 mm 1 m/s 620 mmHg 95%
    20:00 -1°C° 0.8 mm 1 m/s 620 mmHg 96%
    21:00 -2°C° 0.8 mm 1 m/s 620 mmHg 97%
    22:00 -1°C° 1.8 mm 1 m/s 619 mmHg 97%
    23:00 -1°C° 1.8 mm 1 m/s 619 mmHg 97%
    Voir plus